| time (UTC) | temp C | wind direction | speed KPH | gust KPH | rain 1hr cm | rain 24hr cm | rain mn cm | humidity % | barometer mb |
| 20260506233704 | 15 | 267 | 6.4 | 19.3 | 0.00 | 0.00 | 0.00 | 74 | 1020.3 |
| 20260506233205 | 15 | 208 | 3.2 | 19.3 | 0.00 | 0.00 | 0.00 | 74 | 1020.5 |
| 20260506230703 | 14 | 107 | 1.6 | 9.7 | 0.00 | 0.00 | 0.00 | 75 | 1020.6 |
| 20260506230204 | 14 | 217 | 4.8 | 16.1 | 0.00 | 0.00 | 0.00 | 75 | 1020.5 |
| 20260506223705 | 14 | 179 | 4.8 | 11.3 | 0.00 | 0.00 | 0.00 | 74 | 1020.6 |
| 20260506220704 | 14 | 207 | 4.8 | 14.5 | 0.00 | 0.00 | 0.00 | 76 | 1020.8 |
| 20260506220204 | 13 | 230 | 4.8 | 14.5 | 0.00 | 0.00 | 0.00 | 76 | 1020.8 |
| 20260506213705 | 13 | 184 | 3.2 | 8.0 | 0.00 | 0.00 | 0.00 | 76 | 1020.8 |
| 20260506213204 | 13 | 180 | 3.2 | 12.9 | 0.00 | 0.00 | 0.00 | 77 | 1020.8 |
| 20260506210703 | 13 | 217 | 3.2 | 16.1 | 0.00 | 0.00 | 0.00 | 77 | 1020.8 |
| 20260506210204 | 13 | 191 | 4.8 | 16.1 | 0.00 | 0.00 | 0.00 | 77 | 1020.8 |
| 20260506203704 | 13 | 191 | 3.2 | 4.8 | 0.00 | 0.00 | 0.00 | 79 | 1020.7 |
| 20260506203204 | 13 | 210 | 3.2 | 12.9 | 0.00 | 0.00 | 0.00 | 78 | 1020.7 |
| 20260506200704 | 13 | 249 | 1.6 | 8.0 | 0.00 | 0.00 | 0.00 | 80 | 1020.6 |
| 20260506200204 | 13 | 287 | 1.6 | 11.3 | 0.00 | 0.00 | 0.00 | 80 | 1020.6 |
| 20260506193204 | 13 | 263 | 1.6 | 11.3 | 0.00 | 0.00 | 0.00 | 83 | 1020.5 |
| 20260506190705 | 13 | 193 | 3.2 | 4.8 | 0.00 | 0.00 | 0.00 | 84 | 1020.5 |
| 20260506190204 | 13 | 222 | 1.6 | 8.0 | 0.00 | 0.00 | 0.00 | 84 | 1020.5 |
| 20260506183704 | 13 | 220 | 1.6 | 4.8 | 0.00 | 0.00 | 0.00 | 86 | 1020.4 |
| 20260506183203 | 12 | 306 | 1.6 | 12.9 | 0.00 | 0.00 | 0.00 | 86 | 1020.4 |
| 20260506180203 | 12 | 224 | 1.6 | 8.0 | 0.00 | 0.00 | 0.00 | 87 | 1020.1 |
| 20260506173704 | 12 | 257 | 3.2 | 4.8 | 0.00 | 0.00 | 0.00 | 88 | 1020.3 |
| 20260506170704 | 12 | 194 | 3.2 | 4.8 | 0.00 | 0.00 | 0.00 | 91 | 1020.2 |
| 20260506170205 | 12 | 248 | 0.0 | 8.0 | 0.00 | 0.00 | 0.00 | 92 | 1020.1 |
| 20260506163704 | 12 | 292 | 1.6 | 8.0 | 0.00 | 0.00 | 0.00 | 92 | 1019.9 |
| 20260506163204 | 12 | 181 | 1.6 | 4.8 | 0.00 | 0.00 | 0.00 | 92 | 1019.6 |
| 20260506160704 | 11 | 299 | 1.6 | 4.8 | 0.00 | 0.00 | 0.00 | 92 | 1019.7 |
| 20260506160204 | 12 | 190 | 1.6 | 4.8 | 0.00 | 0.00 | 0.00 | 92 | 1019.7 |
| 20260506153704 | 12 | 269 | 1.6 | 4.8 | 0.00 | 0.00 | 0.00 | 92 | 1020.0 |
| 20260506150704 | 12 | 225 | 0.0 | 4.8 | 0.00 | 0.00 | 0.00 | 92 | 1019.6 |
| 20260506150204 | 12 | 283 | 3.2 | 12.9 | 0.00 | 0.00 | 0.00 | 91 | 1019.6 |
| 20260506143704 | 12 | 264 | 0.0 | 3.2 | 0.00 | 0.00 | 0.00 | 91 | 1019.5 |
| 20260506143204 | 12 | 267 | 3.2 | 4.8 | 0.00 | 0.00 | 0.00 | 91 | 1019.6 |
| 20260506140703 | 12 | 144 | 3.2 | 9.7 | 0.00 | 0.00 | 0.00 | 90 | 1019.4 |
| 20260506140204 | 12 | 199 | 1.6 | 8.0 | 0.00 | 0.00 | 0.00 | 91 | 1019.5 |
| 20260506133704 | 12 | 225 | 1.6 | 4.8 | 0.00 | 0.00 | 0.00 | 89 | 1019.3 |
| 20260506133205 | 12 | 208 | 1.6 | 8.0 | 0.00 | 0.00 | 0.00 | 88 | 1019.2 |
| 20260506130704 | 12 | 180 | 1.6 | 3.2 | 0.00 | 0.00 | 0.00 | 88 | 1019.0 |
| 20260506123704 | 12 | 165 | 0.0 | 4.8 | 0.00 | 0.00 | 0.00 | 88 | 1018.7 |
| 20260506123204 | 12 | 179 | 0.0 | 0.0 | 0.00 | 0.00 | 0.00 | 88 | 1018.7 |
| 20260506120704 | 12 | 179 | 0.0 | 3.2 | 0.00 | 0.00 | 0.00 | 88 | 1018.7 |
| 20260506120204 | 12 | 270 | 0.0 | 8.0 | 0.00 | 0.00 | 0.00 | 88 | 1018.6 |
| 20260506113704 | 12 | 154 | 1.6 | 4.8 | 0.00 | 0.00 | 0.00 | 86 | 1018.5 |
| 20260506113203 | 12 | 218 | 1.6 | 4.8 | 0.00 | 0.00 | 0.00 | 85 | 1018.5 |
| 20260506110704 | 12 | 215 | 0.0 | 4.8 | 0.00 | 0.00 | 0.00 | 85 | 1018.4 |
| 20260506103204 | 12 | 231 | 1.6 | 9.7 | 0.00 | 0.00 | 0.00 | 84 | 1018.0 |
| 20260506100704 | 12 | 236 | 3.2 | 9.7 | 0.00 | 0.00 | 0.00 | 84 | 1017.9 |
| 20260506100205 | 12 | 190 | 3.2 | 16.1 | 0.00 | 0.00 | 0.00 | 83 | 1017.8 |
| 20260506093704 | 13 | 203 | 4.8 | 12.9 | 0.00 | 0.00 | 0.00 | 83 | 1017.6 |
| 20260506093203 | 13 | 219 | 4.8 | 16.1 | 0.00 | 0.00 | 0.00 | 82 | 1017.6 |
| 20260506090703 | 13 | 171 | 1.6 | 4.8 | 0.00 | 0.00 | 0.00 | 83 | 1017.4 |
| 20260506083704 | 13 | 178 | 3.2 | 4.8 | 0.00 | 0.00 | 0.00 | 82 | 1017.1 |
| 20260506080704 | 13 | 222 | 3.2 | 8.0 | 0.00 | 0.00 | 0.00 | 82 | 1017.1 |
| 20260506080205 | 13 | 190 | 4.8 | 9.7 | 0.00 | 0.00 | 0.00 | 82 | 1017.1 |
| 20260506073205 | 13 | 161 | 3.2 | 9.7 | 0.00 | 0.00 | 0.00 | 82 | 1016.9 |
| 20260506070703 | 13 | 176 | 1.6 | 8.0 | 0.00 | 0.00 | 0.00 | 82 | 1016.7 |
| 20260506070205 | 13 | 170 | 1.6 | 8.0 | 0.00 | 0.00 | 0.00 | 82 | 1016.7 |
| 20260506060704 | 15 | 226 | 3.2 | 8.0 | 0.00 | 0.00 | 0.00 | 80 | 1016.0 |
| 20260506060203 | 15 | 212 | 1.6 | 9.7 | 0.00 | 0.00 | 0.00 | 79 | 1016.0 |
| 20260506050703 | 16 | 196 | 1.6 | 4.8 | 0.00 | 0.00 | 0.00 | 78 | 1015.7 |
| 20260506050204 | 16 | 198 | 1.6 | 4.8 | 0.00 | 0.00 | 0.00 | 78 | 1015.6 |
| 20260506043704 | 16 | 199 | 1.6 | 3.2 | 0.00 | 0.00 | 0.00 | 77 | 1015.5 |
| 20260506043203 | 16 | 199 | 1.6 | 4.8 | 0.00 | 0.00 | 0.00 | 77 | 1015.5 |
| 20260506040703 | 16 | 199 | 1.6 | 4.8 | 0.00 | 0.00 | 0.00 | 76 | 1015.4 |
| 20260506040204 | 16 | 199 | 1.6 | 4.8 | 0.00 | 0.00 | 0.00 | 76 | 1015.4 |
| 20260506033704 | 17 | 231 | 0.0 | 0.0 | 0.00 | 0.00 | 0.00 | 74 | 1015.2 |
| 20260506033204 | 17 | 231 | 0.0 | 8.0 | 0.00 | 0.00 | 0.00 | 73 | 1015.1 |
| 20260506030704 | 17 | 138 | 1.6 | 4.8 | 0.00 | 0.00 | 0.00 | 70 | 1014.9 |
| 20260506030205 | 17 | 163 | 3.2 | 9.7 | 0.00 | 0.00 | 0.00 | 70 | 1014.9 |
| 20260506023703 | 18 | 211 | 3.2 | 4.8 | 0.00 | 0.00 | 0.00 | 68 | 1014.8 |
| 20260506020704 | 19 | 216 | 3.2 | 11.3 | 0.00 | 0.00 | 0.00 | 67 | 1014.9 |
| 20260506020204 | 19 | 258 | 4.8 | 12.9 | 0.00 | 0.00 | 0.00 | 65 | 1014.9 |
| 20260506013704 | 20 | 182 | 3.2 | 8.0 | 0.00 | 0.00 | 0.00 | 63 | 1014.7 |
| 20260506013205 | 20 | 251 | 3.2 | 14.5 | 0.00 | 0.00 | 0.00 | 63 | 1014.7 |
| 20260506003704 | 20 | 203 | 4.8 | 11.3 | 0.00 | 0.00 | 0.00 | 64 | 1014.9 |
| 20260506003204 | 20 | 276 | 3.2 | 12.9 | 0.00 | 0.00 | 0.00 | 64 | 1014.9 |
| 20260506000205 | 19 | 291 | 3.2 | 11.3 | 0.00 | 0.00 | 0.00 | 64 | 1015.2 |